TimeCST,TemperatureF,Dew PointF,Humidity,Sea Level PressureIn,VisibilityMPH,Wind Direction,Wind SpeedMPH,Gust SpeedMPH,PrecipitationIn,Events,Conditions,WindDirDegrees,DateUTC
12:15 AM,55.4,53.8,94,29.84,10.0,Calm,Calm,-,N/A,,Scattered Clouds,0,2013-12-22 06:15:00
12:35 AM,54.3,53.1,95,29.86,10.0,WNW,5.8,-,N/A,,Scattered Clouds,300,2013-12-22 06:35:00
12:55 AM,55.0,54.0,96,29.85,10.0,Calm,Calm,-,N/A,,Mostly Cloudy,0,2013-12-22 06:55:00
1:15 AM,54.5,53.2,96,29.86,10.0,NNW,3.5,-,N/A,,Mostly Cloudy,330,2013-12-22 07:15:00
1:35 AM,54.5,53.4,96,29.88,10.0,Calm,Calm,-,N/A,,Overcast,0,2013-12-22 07:35:00
1:55 AM,55.6,54.5,96,29.89,10.0,West,3.5,-,N/A,,Mostly Cloudy,280,2013-12-22 07:55:00
2:15 AM,55.8,54.7,96,29.89,10.0,West,3.5,-,N/A,Rain,Light Rain,280,2013-12-22 08:15:00
2:35 AM,55.4,54.1,96,29.88,10.0,NNW,3.5,-,N/A,,Mostly Cloudy,330,2013-12-22 08:35:00
2:55 AM,55.4,54.1,96,29.86,10.0,NNE,5.8,-,N/A,,Mostly Cloudy,30,2013-12-22 08:55:00
3:15 AM,55.8,54.5,96,29.86,10.0,North,5.8,-,N/A,,Mostly Cloudy,350,2013-12-22 09:15:00
3:35 AM,56.3,54.9,95,29.87,10.0,NNW,3.5,-,N/A,,Overcast,330,2013-12-22 09:35:00
3:55 AM,56.7,55.4,96,29.88,10.0,Calm,Calm,-,N/A,,Overcast,0,2013-12-22 09:55:00
4:15 AM,56.5,54.9,94,29.89,10.0,Calm,Calm,-,N/A,,Overcast,0,2013-12-22 10:15:00
4:35 AM,55.6,54.3,96,29.89,10.0,Calm,Calm,-,N/A,,Mostly Cloudy,0,2013-12-22 10:35:00
4:55 AM,55.6,54.5,96,29.88,10.0,Calm,Calm,-,N/A,,Mostly Cloudy,0,2013-12-22 10:55:00
5:15 AM,55.4,54.5,97,29.89,10.0,Calm,Calm,-,N/A,,Overcast,0,2013-12-22 11:15:00
5:35 AM,55.4,54.0,95,29.89,10.0,Calm,Calm,-,N/A,,Mostly Cloudy,0,2013-12-22 11:35:00
5:55 AM,54.9,54.0,97,29.90,10.0,Calm,Calm,-,N/A,,Mostly Cloudy,0,2013-12-22 11:55:00
6:15 AM,54.1,53.2,97,29.91,10.0,Calm,Calm,-,N/A,,Mostly Cloudy,0,2013-12-22 12:15:00
6:35 AM,54.0,53.2,97,29.92,10.0,Calm,Calm,-,N/A,,Mostly Cloudy,0,2013-12-22 12:35:00
6:55 AM,54.0,53.2,97,29.93,10.0,Calm,Calm,-,N/A,,Overcast,0,2013-12-22 12:55:00
7:15 AM,55.4,54.7,97,29.95,10.0,NW,3.5,-,N/A,,Overcast,320,2013-12-22 13:15:00
7:35 AM,55.6,54.7,97,29.96,10.0,Calm,Calm,-,N/A,,Mostly Cloudy,0,2013-12-22 13:35:00
7:55 AM,55.9,54.7,96,29.97,10.0,Calm,Calm,-,N/A,,Mostly Cloudy,0,2013-12-22 13:55:00
8:15 AM,56.8,55.4,95,29.98,10.0,WNW,3.5,-,N/A,,Scattered Clouds,300,2013-12-22 14:15:00
8:35 AM,57.2,54.9,92,30.00,10.0,NW,4.6,-,N/A,,Scattered Clouds,320,2013-12-22 14:35:00
8:55 AM,58.1,54.7,88,30.01,10.0,NW,8.1,-,N/A,,Scattered Clouds,320,2013-12-22 14:55:00
9:15 AM,59.9,54.3,82,30.03,10.0,NW,8.1,-,0.01,,Scattered Clouds,320,2013-12-22 15:15:00
9:35 AM,62.2,51.4,68,30.04,10.0,NNW,11.5,-,0.01,,Scattered Clouds,330,2013-12-22 15:35:00
9:55 AM,61.7,50.7,67,30.06,10.0,NNW,10.4,-,0.01,,Scattered Clouds,330,2013-12-22 15:55:00
10:15 AM,63.0,52.0,67,30.06,10.0,NNW,10.4,-,N/A,,Scattered Clouds,330,2013-12-22 16:15:00
10:35 AM,64.8,52.7,65,30.07,10.0,NNW,10.4,-,N/A,,Scattered Clouds,340,2013-12-22 16:35:00
10:55 AM,63.9,50.7,62,30.07,10.0,NNW,10.4,-,N/A,,Scattered Clouds,340,2013-12-22 16:55:00
11:15 AM,62.6,49.3,62,30.07,10.0,NNW,15.0,-,N/A,,Scattered Clouds,330,2013-12-22 17:15:00
11:35 AM,60.8,50.9,70,30.08,10.0,NNW,16.1,-,N/A,,Mostly Cloudy,330,2013-12-22 17:35:00
11:55 AM,59.7,50.5,72,30.08,10.0,NNW,19.6,-,N/A,,Mostly Cloudy,340,2013-12-22 17:55:00
12:15 PM,57.6,49.6,75,30.09,10.0,NNW,13.8,-,N/A,,Scattered Clouds,340,2013-12-22 18:15:00
12:35 PM,57.2,48.4,72,30.08,10.0,NNW,18.4,23.0,N/A,,Clear,340,2013-12-22 18:35:00
12:55 PM,57.4,47.8,70,30.08,10.0,NNW,16.1,-,N/A,,Clear,330,2013-12-22 18:55:00
1:15 PM,57.2,47.3,69,30.08,10.0,North,19.6,23.0,N/A,,Clear,350,2013-12-22 19:15:00
1:35 PM,57.6,46.4,66,30.07,10.0,NNW,16.1,20.7,N/A,,Clear,340,2013-12-22 19:35:00
1:55 PM,57.9,45.9,64,30.08,10.0,NNW,18.4,21.9,N/A,,Scattered Clouds,340,2013-12-22 19:55:00
2:15 PM,58.3,45.5,62,30.08,10.0,NNW,18.4,24.2,N/A,,Scattered Clouds,340,2013-12-22 20:15:00
2:35 PM,57.6,45.1,63,30.08,10.0,North,17.3,24.2,N/A,,Clear,350,2013-12-22 20:35:00
2:55 PM,56.5,45.0,65,30.09,10.0,NNW,21.9,-,N/A,,Clear,330,2013-12-22 20:55:00
3:15 PM,55.9,43.9,64,30.09,10.0,NNW,19.6,24.2,N/A,,Clear,330,2013-12-22 21:15:00
3:35 PM,56.3,44.2,64,30.09,10.0,NNW,16.1,21.9,N/A,,Clear,340,2013-12-22 21:35:00
3:55 PM,56.5,43.7,62,30.10,10.0,North,17.3,-,N/A,,Clear,350,2013-12-22 21:55:00
4:15 PM,55.4,42.8,63,30.12,10.0,NNW,18.4,25.3,N/A,,Clear,340,2013-12-22 22:15:00
4:35 PM,53.8,42.3,65,30.13,10.0,North,17.3,-,N/A,,Clear,350,2013-12-22 22:35:00
4:55 PM,52.0,40.3,64,30.14,10.0,North,18.4,23.0,N/A,,Clear,350,2013-12-22 22:55:00
5:15 PM,50.5,39.2,65,30.16,10.0,NNW,18.4,25.3,N/A,,Clear,340,2013-12-22 23:15:00
5:35 PM,48.4,39.2,71,30.17,10.0,North,12.7,-,N/A,,Clear,350,2013-12-22 23:35:00
5:55 PM,47.5,37.9,69,30.19,10.0,NNW,11.5,-,N/A,,Clear,340,2013-12-22 23:55:00
6:15 PM,46.8,37.4,70,30.20,10.0,NNW,13.8,-,N/A,,Clear,340,2013-12-23 00:15:00
6:35 PM,46.0,37.0,71,30.21,10.0,North,11.5,19.6,N/A,,Clear,350,2013-12-23 00:35:00
6:55 PM,45.5,36.5,71,30.23,10.0,North,12.7,-,N/A,,Clear,350,2013-12-23 00:55:00
7:15 PM,45.5,35.6,68,30.24,10.0,North,16.1,20.7,N/A,,Clear,350,2013-12-23 01:15:00
7:35 PM,45.5,35.2,67,30.24,10.0,NNW,13.8,-,N/A,,Clear,340,2013-12-23 01:35:00
7:55 PM,44.8,35.1,69,30.26,10.0,North,12.7,-,N/A,,Clear,350,2013-12-23 01:55:00
8:15 PM,44.4,35.2,70,30.27,10.0,North,11.5,-,N/A,,Clear,350,2013-12-23 02:15:00
8:35 PM,43.7,35.1,72,30.28,10.0,North,12.7,-,N/A,,Clear,350,2013-12-23 02:35:00
8:55 PM,43.0,35.6,75,30.29,10.0,North,9.2,-,N/A,,Clear,350,2013-12-23 02:55:00
9:15 PM,42.1,35.6,78,30.30,10.0,North,11.5,-,N/A,,Clear,350,2013-12-23 03:15:00
9:35 PM,42.4,35.2,76,30.32,10.0,North,11.5,17.3,N/A,,Clear,350,2013-12-23 03:35:00
9:55 PM,41.9,35.1,77,30.33,10.0,North,11.5,17.3,N/A,,Clear,350,2013-12-23 03:55:00
10:15 PM,41.0,35.1,79,30.33,10.0,North,8.1,-,N/A,,Clear,350,2013-12-23 04:15:00
10:35 PM,40.5,33.4,76,30.34,10.0,North,13.8,18.4,N/A,,Clear,350,2013-12-23 04:35:00
10:55 PM,40.1,32.9,75,30.35,10.0,North,8.1,-,N/A,,Clear,360,2013-12-23 04:55:00
11:15 PM,39.4,32.9,78,30.34,10.0,North,11.5,-,N/A,,Clear,360,2013-12-23 05:15:00
11:35 PM,39.2,32.4,76,30.35,10.0,North,12.7,17.3,N/A,,Clear,360,2013-12-23 05:35:00
11:55 PM,39.0,32.0,76,30.35,10.0,North,13.8,-,N/A,,Clear,360,2013-12-23 05:55:00